Location: Unspecified
(56.5167°N, 0.0000°E)
Time: 11:14:27
(UTC+02:00)

Resurs 1-4 Rocket - Pass Details

Date: 05 August 2020
Orbit: 799 x 815 km, 98.6° (Epoch: 23 September)

Event Time Altitude Azimuth Distance (km) Brightness Sun altitude
Rises 02:37:22 0° 22° (NNE) 3,341 6.9 -16.3°
Reaches altitude 10° 02:40:08 10° 35° (NE) 2,402 5.6 -16.2°
Maximum altitude 02:44:28 25° 90° (E) 1,585 3.7 -16.2°
Enters shadow 02:48:18 12° 142° (SE) 2,240 4.0 -16.1°
